Location: Unspecified
(50.0077°N, 36.2988°E)
Time: 21:18:04
(UTC+00:00)

ISS - Pass Details

Date: 29 September 2020
Orbit: 417 x 420 km, 51.6° (Epoch: 27 October)

Event Time Altitude Azimuth Distance (km) Brightness Sun altitude
Rises 15:54:51 0° 277° (W) 2,368 2.8 -6.9°
Reaches altitude 10° 15:56:58 10° 280° (W) 1,504 0.8 -7.3°
Maximum altitude 16:00:19 64° 3° (N) 470 -3.5 -7.8°
Enters shadow 16:03:30 11° 85° (E) 1,434 -1.7 -8.3°
